When you browse on this site, cookies collect data to enhance your experience and personalize the content and advertising you see.
Visit our Privacy Policy to learn more. By continuing to use the site, you agree to this use of cookies and data.
  • In Netherlands
  • List of Countries
  • For 7 days
  • Water Temperature
  • Satellite Maps
  • Weather Map
  • Weather Widgets
  • user-avatar
    Login

    Hourly Weather Burgas

    Today, 16 January, Wednesday

    Time Temperature Precipitation Wind Pressure Humidity
    00:00 -4°C° 0 mm 5 mps 758 mmHg 70%
    01:00 -4°C° 0 mm 5 mps 759 mmHg 70%
    02:00 -2°C° 0 mm 3 mps 758 mmHg 69%
    03:00 -2°C° 0 mm 3 mps 759 mmHg 68%
    04:00 -3°C° 0 mm 4 mps 759 mmHg 68%
    05:00 -3°C° 0 mm 4 mps 759 mmHg 68%
    06:00 -3°C° 0 mm 4 mps 759 mmHg 69%
    07:00 -3°C° 0 mm 4 mps 759 mmHg 69%
    08:00 -3°C° 0 mm 4 mps 759 mmHg 70%
    09:00 -1°C° 0 mm 5 mps 759 mmHg 64%
    10:00 -1°C° 0 mm 6 mps 758 mmHg 58%
    11:00 +2°C° 0 mm 7 mps 758 mmHg 52%
    12:00 +3°C° 0 mm 7 mps 758 mmHg 50%
    13:00 +4°C° 0 mm 7 mps 758 mmHg 49%
    14:00 +5°C° 0 mm 7 mps 758 mmHg 47%
    15:00 +4°C° 0 mm 6 mps 758 mmHg 54%
    16:00 +3°C° 0 mm 5 mps 758 mmHg 60%
    17:00 +3°C° 0 mm 4 mps 758 mmHg 66%
    18:00 +3°C° 0 mm 3 mps 759 mmHg 68%
    19:00 +2°C° 0 mm 3 mps 759 mmHg 71%
    20:00 +2°C° 0 mm 3 mps 759 mmHg 73%
    21:00 +1°C° 0 mm 3 mps 760 mmHg 74%
    22:00 +1°C° 0 mm 3 mps 761 mmHg 75%
    23:00 +1°C° 0 mm 3 mps 761 mmHg 75%

    Tomorrow, 17 January, Thursday

    Time Temperature Precipitation Wind Pressure Humidity
    00:00 +1°C° 0 mm 3 mps 762 mmHg 75%
    01:00 +1°C° 0 mm 3 mps 762 mmHg 76%
    02:00 +1°C° 0 mm 3 mps 762 mmHg 76%
    03:00 +2°C° 0 mm 2 mps 762 mmHg 76%
    04:00 +2°C° 0 mm 2 mps 762 mmHg 75%
    05:00 +2°C° 0 mm 2 mps 762 mmHg 75%
    06:00 +2°C° 0 mm 2 mps 763 mmHg 75%
    07:00 +2°C° 0 mm 2 mps 763 mmHg 74%
    08:00 +2°C° 0 mm 2 mps 763 mmHg 73%
    09:00 +3°C° 0 mm 3 mps 763 mmHg 67%
    10:00 +4°C° 0 mm 3 mps 763 mmHg 61%
    11:00 +7°C° 0 mm 3 mps 763 mmHg 56%
    12:00 +8°C° 0 mm 3 mps 763 mmHg 56%
    13:00 +8°C° 0 mm 4 mps 762 mmHg 56%
    14:00 +10°C° 0 mm 4 mps 762 mmHg 55%
    15:00 +9°C° 0 mm 3 mps 762 mmHg 64%
    16:00 +7°C° 0 mm 3 mps 762 mmHg 72%
    17:00 +5°C° 0 mm 3 mps 762 mmHg 80%
    18:00 +5°C° 0 mm 3 mps 762 mmHg 82%
    19:00 +4°C° 0 mm 3 mps 762 mmHg 85%
    20:00 +4°C° 0 mm 3 mps 762 mmHg 87%
    21:00 +4°C° 0 mm 3 mps 762 mmHg 87%
    22:00 +3°C° 0 mm 3 mps 762 mmHg 86%
    23:00 +3°C° 0 mm 3 mps 762 mmHg 86%

    Day after tomorrow, 18 January, Friday

    Time Temperature Precipitation Wind Pressure Humidity
    00:00 +3°C° 0 mm 3 mps 761 mmHg 85%
    01:00 +3°C° 0 mm 3 mps 761 mmHg 85%
    02:00 +3°C° 0 mm 3 mps 761 mmHg 85%
    03:00 +3°C° 0 mm 3 mps 761 mmHg 86%
    04:00 +3°C° 0 mm 3 mps 761 mmHg 87%
    05:00 +3°C° 0 mm 3 mps 760 mmHg 88%
    06:00 +3°C° 0 mm 3 mps 760 mmHg 88%
    07:00 +3°C° 0 mm 3 mps 761 mmHg 89%
    08:00 +3°C° 0 mm 3 mps 761 mmHg 90%
    09:00 +4°C° 0 mm 3 mps 761 mmHg 84%
    10:00 +6°C° 0 mm 4 mps 761 mmHg 78%
    11:00 +8°C° 0 mm 5 mps 761 mmHg 73%
    12:00 +9°C° 0 mm 5 mps 760 mmHg 69%
    13:00 +9°C° 0 mm 5 mps 760 mmHg 65%
    14:00 +10°C° 0 mm 5 mps 760 mmHg 62%
    15:00 +10°C° 0 mm 4 mps 760 mmHg 66%
    16:00 +9°C° 0 mm 3 mps 760 mmHg 70%
    17:00 +8°C° 0 mm 2 mps 760 mmHg 74%
    18:00 +7°C° 0 mm 2 mps 761 mmHg 76%
    19:00 +7°C° 0 mm 2 mps 761 mmHg 77%
    20:00 +6°C° 0 mm 2 mps 762 mmHg 79%
    21:00 +6°C° 0 mm 2 mps 762 mmHg 79%
    22:00 +6°C° 0 mm 2 mps 763 mmHg 79%
    23:00 +5°C° 0 mm 2 mps 763 mmHg 79%

    19 January, Saturday

    Time Temperature Precipitation Wind Pressure Humidity
    00:00 +5°C° 0 mm 2 mps 763 mmHg 79%
    01:00 +6°C° 0 mm 1 mps 764 mmHg 79%
    02:00 +5°C° 0 mm 1 mps 764 mmHg 79%
    03:00 +4°C° 0 mm 2 mps 764 mmHg 81%
    04:00 +3°C° 0 mm 2 mps 764 mmHg 83%
    05:00 +2°C° 0 mm 3 mps 764 mmHg 84%
    06:00 +2°C° 0 mm 3 mps 765 mmHg 87%
    07:00 +3°C° 0 mm 2 mps 765 mmHg 89%
    08:00 +3°C° 0 mm 2 mps 765 mmHg 91%
    09:00 +4°C° 0 mm 2 mps 765 mmHg 87%
    10:00 +5°C° 0 mm 2 mps 765 mmHg 83%
    11:00 +5°C° 0 mm 3 mps 765 mmHg 79%
    12:00 +7°C° 0 mm 3 mps 765 mmHg 78%
    13:00 +7°C° 0 mm 3 mps 765 mmHg 76%
    14:00 +7°C° 0 mm 3 mps 764 mmHg 75%
    15:00 +7°C° 0 mm 3 mps 764 mmHg 78%
    16:00 +5°C° 0 mm 3 mps 764 mmHg 80%
    17:00 +5°C° 0 mm 3 mps 764 mmHg 83%
    18:00 +5°C° 0 mm 3 mps 764 mmHg 85%
    19:00 +4°C° 0 mm 3 mps 764 mmHg 87%
    20:00 +4°C° 0 mm 3 mps 764 mmHg 88%
    21:00 +4°C° 0 mm 3 mps 764 mmHg 89%
    22:00 +5°C° 0 mm 2 mps 764 mmHg 90%
    23:00 +6°C° 0 mm 2 mps 764 mmHg 90%

    20 January, Sunday

    Time Temperature Precipitation Wind Pressure Humidity
    00:00 +6°C° 0.1 mm 2 mps 764 mmHg 91%
    01:00 +6°C° 0.1 mm 2 mps 763 mmHg 92%
    02:00 +6°C° 0.1 mm 2 mps 763 mmHg 94%
    03:00 +6°C° 0.1 mm 2 mps 762 mmHg 94%
    04:00 +7°C° 0.1 mm 1 mps 762 mmHg 94%
    05:00 +7°C° 0.1 mm 1 mps 762 mmHg 95%
    06:00 +7°C° 0 mm 1 mps 762 mmHg 95%
    07:00 +7°C° 0 mm 1 mps 762 mmHg 95%
    08:00 +7°C° 0 mm 1 mps 762 mmHg 95%
    09:00 +8°C° 0 mm 2 mps 761 mmHg 91%
    10:00 +9°C° 0 mm 2 mps 761 mmHg 87%
    11:00 +10°C° 0 mm 3 mps 761 mmHg 83%
    12:00 +10°C° 0 mm 3 mps 761 mmHg 81%
    13:00 +11°C° 0 mm 4 mps 760 mmHg 79%
    14:00 +10°C° 0 mm 5 mps 759 mmHg 77%
    15:00 +11°C° 0 mm 4 mps 759 mmHg 80%
    16:00 +10°C° 0 mm 4 mps 759 mmHg 83%
    17:00 +10°C° 0 mm 3 mps 759 mmHg 86%
    18:00 +9°C° 0 mm 3 mps 759 mmHg 87%
    19:00 +9°C° 0 mm 3 mps 759 mmHg 88%
    20:00 +8°C° 0 mm 3 mps 759 mmHg 90%
    21:00 +8°C° 0 mm 3 mps 760 mmHg 90%
    22:00 +8°C° 0 mm 3 mps 760 mmHg 91%
    23:00 +8°C° 0 mm 3 mps 760 mmHg 91%

    21 January, Monday

    Time Temperature Precipitation Wind Pressure Humidity
    00:00 +7°C° 0.1 mm 3 mps 760 mmHg 92%
    01:00 +7°C° 0.1 mm 2 mps 760 mmHg 92%
    02:00 +7°C° 0.1 mm 2 mps 761 mmHg 93%
    03:00 +6°C° 0.2 mm 2 mps 761 mmHg 91%
    04:00 +6°C° 0.2 mm 2 mps 761 mmHg 90%
    05:00 +6°C° 0.2 mm 2 mps 761 mmHg 88%
    06:00 +5°C° 0.1 mm 3 mps 762 mmHg 86%
    07:00 +4°C° 0.1 mm 3 mps 763 mmHg 84%
    08:00 +4°C° 0.1 mm 4 mps 763 mmHg 82%
    09:00 +4°C° 0 mm 4 mps 764 mmHg 80%
    10:00 +4°C° 0 mm 4 mps 764 mmHg 78%
    11:00 +4°C° 0 mm 4 mps 765 mmHg 76%
    12:00 +4°C° 0.1 mm 4 mps 765 mmHg 76%
    13:00 +4°C° 0.1 mm 4 mps 765 mmHg 75%
    14:00 +4°C° 0.1 mm 4 mps 765 mmHg 75%
    15:00 +4°C° 0.1 mm 4 mps 766 mmHg 75%
    16:00 +3°C° 0.1 mm 4 mps 766 mmHg 74%
    17:00 +1°C° 0.1 mm 4 mps 767 mmHg 74%
    18:00 +1°C° 0 mm 4 mps 767 mmHg 74%
    19:00 +1°C° 0 mm 4 mps 768 mmHg 74%
    20:00 0°C° 0 mm 4 mps 768 mmHg 73%
    21:00 0°C° 0 mm 5 mps 769 mmHg 74%
    22:00 0°C° 0 mm 5 mps 769 mmHg 74%
    23:00 0°C° 0 mm 5 mps 769 mmHg 75%
    Show more